Weather in Tallahassee

United States     30°26′33″N   84°17′13″W
temp.,
°C
wind,
m/s
gust,
m/s
humid.,
%
clouds,
%
prec.,
mm/h
press.,
hPa
HPBL,
m
16 may, sun
sun1623:00+16ene25595 0.0 102392
02:00+14e210601 0.0 1022235
05:00+13e237171 0.0 102359
08:00+16e276878 0.0 1025159
11:00+24e353692 0.0 10251249
14:00+27e342798 0.0 10232007
17:00+28ene342724 0.0 10202091
20:00+22ene22515 0.0 102039
17 may, mon
mon1723:00+18e38596 0.0 1021190
02:00+17ese28705 0.0 1022234
05:00+15ese29795 0.0 1021216
08:00+17ese27766 0.0 1022194
11:00+25se354253 0.0 10221336
14:00+29ese242841 0.0 10202271
17:00+31ese242767 0.0 10182785
20:00+23s225768 0.0 101937
18 may, tue
tue1823:00+22ese41161100 0.0 1020571
02:00+20ese3117177 0.0 1021565
05:00+19ese3127561 0.0 1020501
08:00+19e3107883 0.0 1022428
11:00+26se455392 0.0 10221525
14:00+30ese343473 0.0 10202720
17:00+31e452838 0.0 10182860
20:00+25sse3653100 0.0 1019203
19 may, wed
wed1923:00+22ese411595 0.0 1022650
02:00+20ese412683 0.0 1021667
05:00+18e3118235 0.0 1021506
08:00+19e311816 0.0 1023418
11:00+26ese46485 0.0 10231521
14:00+31e57336 0.0 10212589
17:00+32e572736 0.0 10183024
20:00+27ese3841100 0.0 1019388
20 may, thu
thu2023:00+23e5116361 0.0 1022918
02:00+21e41174100 0.0 1023764
05:00+20e41183100 0.0 1022647
08:00+20e411775 0.0 1024666
11:00+27e58453 0.0 10241620
14:00+31e57277 0.0 10232431
17:00+31e57265 0.0 10212816
20:00+27e510375 0.0 1022876